Weather History for Resolute, NU

Change the Weather History Date:

Sunday, March 24, 2013

  Actual Average Record
Temperature  
Mean Temperature 6 °F -  
Max Temperature 12 °F -12 °F 12 °F (2013)
Min Temperature 0 °F -22 °F -32 °F (2009)
Degree Days  
Heating Degree Days 59    
Moisture  
Dew Point 1 °F    
Average Humidity 76    
Maximum Humidity 85    
Minimum Humidity 61    
Precipitation  
Precipitation 0.01 in - - ()
Sea Level Pressure  
Sea Level Pressure 30.67 in    
Wind  
Wind Speed 15 mph ()    
Max Wind Speed 23 mph    
Max Gust Speed 29 mph    
Visibility 7.5 miles    
Events Snow    
Averages and records for this station are not official NWS values.
T = Trace of Precipitation, MM = Missing Value Source: Averaged Metar Reports

Daily Weather History Graph

Daily Weather History Graph

Search for Another Location

Airport:

Trip Planner

Search our weather history database for the weather conditions in past years. The results will help you decide how hot, cold, wet, or windy it might be!

Date:

Astronomy

Mar. 24, 2013 Rise Set
Actual Time 6:49 AM CDT 8:05 PM CDT
Civil Twilight 5:26 AM CDT 9:29 PM CDT
Nautical Twilight 3:16 AM CDT 11:47 PM CDT
Astronomical Twilight Sun does not rise Sun does not rise
Moon 3:56 PM CDT (3/24) 6:56 AM CDT (3/24)
Length of Visible Light 16h 02m
Length of Day
13h 15m
Waxing Gibbous, 92% of the Moon is Illuminated
Mar 24
Waxing Gibbous
Mar 27
Full
Apr 2
Last Quarter
Apr 10
New
Apr 18
First Quarter

Hourly Weather History & Observations

Time (CDT) Temp. Windchill Dew Point Humidity Pressure Visibility Wind Dir Wind Speed Gust Speed Precip Events Conditions
12:00 AM -0.4 °F -15.7 °F -7.6 °F 72% 30.69 in 15.0 mi SE 9.2 mph - N/A Snow Light Snow
1:00 AM 1 °F - -5 °F 63% 30.68 in 10 mi SE 13.8 mph - - Snow Light Snow
1:00 AM 1.4 °F -16.9 °F -5.8 °F 72% 30.68 in 10.0 mi SE 13.8 mph - N/A Snow Light Snow
2:00 AM 3.2 °F -16.5 °F -4.0 °F 72% 30.66 in 0.8 mi SSE 17.3 mph 23.0 mph N/A Snow Light Snow
2:22 AM - - - N/A% - 4.0 mi SSE 20.7 mph - N/A   Unknown
3:00 AM 3.2 °F -16.5 °F -4.0 °F 72% 30.67 in 10.0 mi SE 17.3 mph 23.0 mph N/A Snow Light Snow
4:00 AM 5.0 °F -14.2 °F -2.2 °F 72% 30.67 in 12.0 mi SSE 17.3 mph 23.0 mph N/A Snow Light Snow
5:00 AM 5.0 °F -14.2 °F -2.2 °F 72% 30.68 in 10.0 mi SSE 17.3 mph 23.0 mph N/A Snow Light Snow
6:00 AM 5.0 °F -16.7 °F -2.2 °F 72% 30.66 in 6.0 mi South 23.0 mph 28.8 mph N/A Snow Light Snow
6:53 AM - - - N/A% - 10.0 mi South 19.6 mph - N/A   Unknown
7:00 AM 3 °F - -4 °F 61% 30.66 in 10 mi SSE 23.0 mph - - Snow Low Drifting Snow
7:00 AM 3.2 °F -19.0 °F -4.0 °F 72% 30.66 in 10.0 mi SSE 23.0 mph - N/A Snow Low Drifting Snow
8:00 AM 3.2 °F -19.0 °F -4.0 °F 72% 30.67 in 8.0 mi South 23.0 mph - N/A Snow Light Snow
9:00 AM 1.4 °F -20.5 °F -2.2 °F 85% 30.66 in 8.0 mi South 20.7 mph - N/A Snow Light Snow
10:00 AM 3.2 °F -19.0 °F -0.4 °F 85% 30.68 in 2.0 mi South 23.0 mph - N/A Snow Light Snow
10:21 AM - - - N/A% - 1.8 mi South 17.3 mph - N/A   Unknown
10:45 AM - - - N/A% - 1.2 mi South 18.4 mph - N/A   Unknown
11:00 AM 6.8 °F -13.4 °F 1.4 °F 79% 30.67 in 1.8 mi South 20.7 mph - N/A Snow Light Snow
11:07 AM - - - N/A% - 3.0 mi South 20.7 mph - N/A   Unknown
11:39 AM - - - N/A% - 6.0 mi SSE 16.1 mph - N/A   Unknown
12:00 PM 6.8 °F -11.8 °F 3.2 °F 85% 30.68 in 6.0 mi SSE 17.3 mph - N/A Snow Light Snow
1:00 PM 8 °F - 4 °F 75% 30.68 in 6 mi SE 16.1 mph - - Snow Light Snow Showers
1:00 PM 8.6 °F -8.9 °F 3.2 °F 79% 30.68 in 6.0 mi SE 16.1 mph - N/A Snow Light Snow Showers
1:53 PM - - - N/A% - 2.5 mi SE 15.0 mph - N/A   Unknown
2:00 PM 10.4 °F -5.4 °F 5.0 °F 79% 30.69 in 2.5 mi SE 13.8 mph - N/A Snow Light Snow Showers
3:00 PM 10.4 °F -6.0 °F 5.0 °F 79% 30.69 in 4.0 mi SSE 15.0 mph - N/A Snow Light Snow
4:00 PM 10.4 °F -5.4 °F 6.8 °F 85% 30.69 in 10.0 mi SSE 13.8 mph - N/A Snow Light Snow
5:00 PM 12.2 °F -3.1 °F 6.8 °F 79% 30.69 in 12.0 mi SE 13.8 mph - N/A Snow Light Snow
6:00 PM 10.4 °F -6.0 °F 5.0 °F 79% 30.68 in 12.0 mi SSE 15.0 mph - N/A Snow Light Snow
7:00 PM 11 °F - 6 °F 74% 30.68 in 7 mi SE 15.0 mph - - Snow Light Snow
7:00 PM 12.2 °F -3.7 °F 6.8 °F 79% 30.68 in 8.0 mi SE 15.0 mph - N/A Snow Light Snow
8:00 PM 12.2 °F -3.1 °F 6.8 °F 79% 30.66 in 8.0 mi SE 13.8 mph - N/A Snow Light Snow
9:00 PM 12.2 °F -3.1 °F 6.8 °F 79% 30.66 in 15.0 mi SE 13.8 mph - N/A Snow Light Snow
10:00 PM 12.2 °F -2.5 °F 6.8 °F 79% 30.65 in 15.0 mi SSE 12.7 mph - N/A Snow Light Snow
11:00 PM 12.2 °F -3.1 °F 6.8 °F 79% 30.65 in 10.0 mi SE 13.8 mph - N/A Snow Light Snow